Location: Unspecified
(0.0000°N, 0.0000°E)
Time: 23:29:00
(UTC+00:00)

Hubble Space Telescope - Pass Details

Date: 11 January 2019
Orbit: 537 x 540 km, 28.5° (Epoch: 19 January)

Event Time Altitude Azimuth Distance (km) Brightness Sun altitude
Exits shadow 05:19:51 12° 264° (W) 1,638 2.7 -11.1°
Maximum altitude 05:23:17 38° 330° (NNW) 832 1.3 -10.3°
Drops below altitude 10° 05:27:08 10° 39° (NE) 1,782 3.6 -9.4°
Sets 05:29:30 0° 47° (NE) 2,671 4.7 -8.9°
